www.pogodaiklimat.ru

Погода и климат >> Архив погоды >> Австралия >> Квинсленд >> Мариба


ПОГОДА в Марибе

  • Прогноз погоды в Марибе
  • Монитор погоды в Марибе

АРХИВ ПОГОДЫ в Марибе

Время (UTC), дата Ветер
(напр.,м/с)
 
Видим.   Явления Облачность Т
(С)
Тd
(С)
f
(%)
Тe
(С)
Тes
(С)
Комфортность P
(гПа)
Po
(гПа)
Тmin
(С)
Tmax
(С)
R
(мм)
R24
(мм)
S
(см)
14 11.09 ЮВ 5 н/о н/о +17.8 +11.4 66 +17 +17 1021.7 967.9 +23.9
17 11.09 ЮВ 5 н/о н/о +16.7 +10.8 68 +16 +16 1020.1 966.4
20 11.09 ЮВ 4 н/о н/о +15.5 +11.5 77 +15 +15 1020.1 966.4
23 11.09 В 7 н/о н/о +20.9 +11.0 53 +23 +23 комфорт 1021.8 968.0
02 12.09 ЮВ 8 н/о н/о +22.9 +10.3 45 +25 +25 комфорт 1020.5 966.8 +13.8
05 12.09 ЮВ 7 н/о н/о +20.6 +12.8 61 +23 +23 комфорт 1019.2 965.5
08 12.09 ЮВ 6 н/о н/о +18.4 +13.1 71 +18 +18 1019.8 966.1
11 12.09 ЮВ 2 н/о н/о +16.2 +12.4 78 +16 +16 1021.5 967.7
14 12.09 Ю 2 н/о н/о +14.5 +12.4 87 +14 +14 1020.4 966.7 +25.0
17 12.09 штиль 0 н/о н/о +15.5 +12.3 81 +15 +15 1018.8 965.2
20 12.09 В 4 н/о н/о +16.8 +12.3 75 +16 +16 1019.4 965.7
23 12.09 ЮВ 10 н/о н/о +20.7 +7.3 42 +21 +21 комфорт 1021.2 967.4
02 13.09 ЮВ 7 н/о н/о +23.6 +7.3 35 +24 +24 комфорт 1019.9 966.2 +14.1
05 13.09 ЮВ 6 н/о н/о +25.0 +7.2 32 +25 +25 комфорт 1017.9 964.3
08 13.09 Ю 5 н/о н/о +20.5 +2.3 30 +21 +21 комфорт 1019.0 965.4
11 13.09 ЮЗ 4 н/о н/о +14.3 +5.7 56 +13 +13 1020.4 966.7
14 13.09 Ю 4 н/о н/о +13.6 +6.2 61 +12 +12 1020.0 966.3 +25.8
17 13.09 ЮВ 2 н/о н/о +12.5 +8.2 75 +12 +12 1018.9 965.3
20 13.09 ЮВ 4 н/о н/о +12.9 +10.8 87 +11 +11 1019.3 965.6
23 13.09 ЮВ 5 н/о н/о +20.7 +11.9 57 +23 +23 комфорт 1020.7 967.0
02 14.09 В 6 н/о н/о +25.3 +3.9 25 +24 +24 комфорт 1019.4 965.7 +12.2
05 14.09 В 6 н/о н/о +26.6 +1.8 20 +25 +25 комфорт 1017.3 963.7
08 14.09 ЮВ 6 н/о н/о +22.3 +0.2 23 +22 +22 комфорт 1018.3 964.7
11 14.09 Ю 4 н/о н/о +15.2 +5.7 53 +14 +14 1019.8 966.1
05 16.09 ЮВ 4 н/о н/о +25.8 +8.3 33 +26 +26 жарко 1016.3 962.8
08 16.09 ЮВ 5 н/о н/о +22.0 +9.5 45 +24 +24 комфорт 1017.0 963.5
11 16.09 ЮВ 3 н/о н/о +17.2 +12.9 76 +17 +17 1018.9 965.3
14 16.09 ЮВ 4 н/о н/о +16.3 +14.3 88 +16 +16 1018.6 965.0
17 16.09 Ю 4 н/о н/о +15.4 +13.9 91 +14 +14 1017.4 963.8
20 16.09 ЮВ 3 н/о н/о +14.0 +12.9 93 +13 +13 1017.9 964.3
23 16.09 В 3 н/о н/о +20.6 +13.1 62 +23 +23 комфорт 1019.0 965.4
02 17.09 Ю 3 н/о н/о +25.9 +8.4 33 +26 +26 жарко 1017.0 963.5
05 17.09 ЮВ 5 н/о н/о +27.8 +7.1 27 +27 +27 жарко 1014.8 961.4
08 17.09 СВ 3 н/о н/о +22.2 +12.2 53 +25 +25 комфорт 1016.5 963.0
11 17.09 штиль 0 н/о н/о +16.7 +13.2 80 +17 +17 1018.7 965.1
14 17.09 штиль 0 н/о н/о +12.8 +10.7 87 +12 +12 1018.7 965.1 +28.6
17 17.09 В 1 н/о н/о +10.9 +9.5 91 +11 +11 1017.7 964.1
20 17.09 ЮВ 1 н/о н/о +8.3 +5.8 84 +9 +9 1018.0 964.4
23 17.09 ЮВ 2 н/о н/о +21.8 +2.5 28 +22 +22 комфорт 1019.4 965.7
02 18.09 ЮВ 7 н/о н/о +30.1 -2.4 12 +27 +27 жарко 1016.9 963.4 +7.8
05 18.09 В 8 н/о н/о +30.2 -2.3 12 +27 +27 жарко 1015.1 961.7
08 18.09 ЮВ 6 н/о н/о +26.6 +1.1 19 +25 +25 комфорт 1016.5 963.0
11 18.09 ЮВ 2 н/о н/о +16.6 +11.1 70 +17 +17 1017.9 964.3

 

Местоположение метеостанции Мариба (Квинсленд, Австралия): широта -17.07 долгота 145.43 высота над уровнем моря 473 м.

В архиве по умолчанию представлена погода в Марибе за последнюю неделю. Архивные данные за месяц целиком и за предыдущие месяцы, начиная с января 2011 года, Вы можете получить, выбрав интересующий диапазон дат из раскрывающегося списка и нажав кнопку "Ввод!".


*Определитесь, кто Вы:
робот инопланетянин человек

Внимание! Время в таблицах - всемирное. Для получения местного времени необходимо прибавить поправку, которая равна 10 ч.

Смотрите также архив погоды в соседних городах и на ближайших метеорологических станциях:

Погода в Кэрнсе (Квинсленд, Австралия) (40 км)
Погода на Острове Лоу (Квинсленд, Австралия) (78 км)
Погода на Арлингтон рифе (Квинсленд, Австралия) (83 км)
Погода в Юг Джонстон (Квинсленд, Австралия) (84 км)
Погода в Куктауне (Квинсленд, Австралия) (182 км)
Погода в Палмервилле (Квинсленд, Австралия) (188 км)
Погода в Лусинде (Квинсленд, Австралия) (191 км)
Погода на Мысе Флэттери (Квинсленд, Австралия) (234 км)
Погода в Джорджтауне (Квинсленд, Австралия) (243 км)
Погода на Бугенвильском рифе (Квинсленд, Австралия) (250 км)

Пояснения к столбцам:

Ветер - указаны скорость ветра в м/с - средняя за 10 мин, порывы в срок и между сроками (в фигурных скобках) и направление, откуда дует ветер: С - северный, СВ - северо-восточный, В - восточный, ЮВ - юго-восточный, Ю - южный, ЮЗ - юго-западный, З - западный, СЗ - северо-западный.
Видимость - горизонтальная дальность видимости в метрах или километрах. При видимости от 1 до 10 км при отсутствии осадков обычно наблюдается дымка, при ухудшении видимости до 1 км и менее - туман. В сухую погоду видимость может ухудшаться дымом, пылью или мглою.
Явления - указаны атмосферные явления, наблюдавшиеся в срок или в последний час перед сроком; фигурными скобками обозначены явления, наблюдавшиеся между сроками (за 1-3 часа до срока); квадратными скобками обозначены град или гололедные отложения с указанием их диаметра в мм.
Облачность - указаны через наклонную черту общая и нижняя облачность в баллах и высота нижней границы облаков в метрах; квадратными скобками обозначены формы облаков: Ci - перистые, Cs - перисто-слоистые, Cc - перисто-кучевые, Ac - высококучевые, As - высокослоистые, Sc - слоисто-кучевые, Ns - слоисто-дождевые, Cu - кучевые, Cb - кучево-дождевые. Подробнее классификацию облаков см. в Атласе облаков (PDF).
T - Температура воздуха - температура, измеренная на высоте 2 м над землей.
Td - Температура точки росы - температура, при понижении до которой содержащийся в воздухе водяной пар достигнет насыщения.
f - Относительная влажность воздуха - влажноcть воздуха, измеренная на высоте 2 м над землей.
Te - Эффективная температура - температура, которую ощущает одетый по сезону человек в тени. Характеристика душности погоды. При расчете учитывается влияние влажности воздуха и скорости ветра на теплоощущения человека.
Tes - Эффективная температура на солнце - температура, которую ощущает человек, с поправкой на солнечный нагрев. Характеристика знойности погоды. Зависит от высоты солнца над горизонтом, облачности и скорости ветра. Ночью, в пасмурную погоду, а также при ветре 12 м/с и более поправка равна нулю.
P - Атмосферное давление - приведенное к уровню моря атмосферное давление.
Po - Атмосферное давление - измеренное на уровне метеостанции атмосферное давление.
Tmin - Минимальная температура - минимум температуры воздуха на высоте 2 м над землей.
Tmax - Максимальная температура - максимум температуры воздуха на высоте 2 м над землей.
R - Количество осадков - Количество выпавших осадков за период времени, мм. При наведении курсора мыши на число - период времени, за который выпало указанное количество осадков.
R24 - Количество осадков - Количество выпавших осадков за 24 часа, мм.
S - Снежный покров - Высота снежного покрова, см. При наведении курсора мыши на число - состояние снежного покрова и степень покрытия местности в баллах.